Weather History for K42J - April, 2014

Change the Weather History Date:

Tuesday, April 29, 2014

  Actual Average (KGNV) Record (KGNV)
Temperature  
Mean Temperature 78 °F 70 °F  
Max Temperature 87 °F 83 °F 95 °F (1914)
Min Temperature 69 °F 58 °F 39 °F (1928)
Degree Days  
Heating Degree Days 0 1  
Month to date heating degree days 44  
Since 1 July heating degree days 1215  
Cooling Degree Days 13 6  
Month to date cooling degree days 115  
Year to date cooling degree days 201  
Growing Degree Days 28 (Base 50)    
Moisture  
Dew Point 68 °F    
Average Humidity 82    
Maximum Humidity 100    
Minimum Humidity 46    
Precipitation  
Precipitation 0.00 in 0.08 in 1.31 in (1939)
Month to date precipitation 2.60  
Year to date precipitation 13.44  
Snow  
Snow 0.00 in 0.00 in 0.00 in ()
Month to date snowfall 0.0  
Since 1 July snowfall 0.0  
Snow Depth -    
Sea Level Pressure  
Sea Level Pressure 29.95 in    
Wind  
Wind Speed 6 mph (SSE)    
Max Wind Speed 20 mph    
Max Gust Speed 28 mph    
Visibility 10 miles    
Events Thunderstorm    
T = Trace of Precipitation, MM = Missing Value Source: NWS Daily Summary

Daily Weather History Graph

Daily Weather History Graph

Search for Another Location

Airport or City:

Trip Planner

Search our weather history database for the weather conditions in past years. The results will help you decide how hot, cold, wet, or windy it might be!

Date:

Astronomy

Apr. 29, 2014 Rise Set
Actual Time 6:47 AM EDT 8:04 PM EDT
Civil Twilight 6:22 AM EDT 8:29 PM EDT
Nautical Twilight 5:52 AM EDT 8:59 PM EDT
Astronomical Twilight 5:21 AM EDT 9:30 PM EDT
Moon 7:03 AM EDT (4/29) 8:41 PM EDT (4/29)
Length of Visible Light 14h 07m
Length of Day
13h 16m
New Moon, 0% of the Moon is Illuminated
Apr 29
New Moon
May 6
First Quarter
May 14
Full
May 21
Last Quarter
May 28
New

Hourly Weather History & Observations

Time (EDT) Temp. Heat Index Dew Point Humidity Pressure Visibility Wind Dir Wind Speed Gust Speed Precip Events Conditions
12:15 AM 73.4 °F - 62.6 °F 69% 29.92 in 10.0 mi Calm Calm - N/A   Clear
12:35 AM 69.8 °F - 62.6 °F 78% 29.91 in 10.0 mi Calm Calm - N/A   Clear
12:55 AM 69.8 °F - 62.6 °F 78% 29.90 in 10.0 mi SE 5.8 mph - N/A   Clear
1:15 AM 69.8 °F - 62.6 °F 78% 29.90 in 10.0 mi SE 4.6 mph - N/A   Clear
1:35 AM 69.8 °F - 62.6 °F 78% 29.90 in 10.0 mi SE 6.9 mph - N/A   Clear
1:55 AM 71.6 °F - 62.6 °F 73% 29.88 in 10.0 mi SE 5.8 mph - N/A   Clear
2:15 AM 69.8 °F - 62.6 °F 78% 29.89 in 10.0 mi SSE 3.5 mph - N/A   Clear
2:35 AM 71.6 °F - 64.4 °F 78% 29.90 in 10.0 mi SSE 3.5 mph - N/A   Clear
2:55 AM 71.6 °F - 64.4 °F 78% 29.90 in 10.0 mi SSE 3.5 mph - N/A   Clear
3:15 AM 71.6 °F - 64.4 °F 78% 29.90 in 10.0 mi SSE 4.6 mph - N/A   Clear
3:35 AM 71.6 °F - 66.2 °F 83% 29.89 in 10.0 mi SSE 4.6 mph - N/A   Clear
3:55 AM 71.6 °F - 66.2 °F 83% 29.89 in 10.0 mi SSE 3.5 mph - N/A   Clear
4:15 AM 71.6 °F - 66.2 °F 83% 29.88 in 10.0 mi SSE 4.6 mph - N/A   Clear
4:35 AM 71.6 °F - 66.2 °F 83% 29.88 in 10.0 mi SSE 5.8 mph - N/A   Clear
4:55 AM 71.6 °F - 66.2 °F 83% 29.89 in 10.0 mi SSE 4.6 mph - N/A   Clear
5:15 AM 71.6 °F - 66.2 °F 83% 29.90 in 10.0 mi South 4.6 mph - N/A   Clear
5:35 AM 71.6 °F - 66.2 °F 83% 29.90 in 10.0 mi South 6.9 mph - N/A   Clear
5:55 AM 71.6 °F - 68.0 °F 88% 29.91 in 10.0 mi South 8.1 mph - N/A   Clear
6:15 AM 71.6 °F - 68.0 °F 88% 29.91 in 10.0 mi SSE 6.9 mph - N/A   Clear
6:35 AM 71.6 °F - 68.0 °F 88% 29.91 in 10.0 mi SSE 8.1 mph - N/A   Clear
6:55 AM 71.6 °F - 68.0 °F 88% 29.92 in 10.0 mi South 8.1 mph - N/A   Clear
7:15 AM 71.6 °F - 69.8 °F 94% 29.93 in 10.0 mi South 5.8 mph - N/A   Clear
7:35 AM 71.6 °F - 69.8 °F 94% 29.93 in 10.0 mi SSE 6.9 mph - N/A   Clear
7:55 AM 71.6 °F - 69.8 °F 94% 29.94 in 10.0 mi South 6.9 mph - N/A   Clear
8:15 AM 73.4 °F - 69.8 °F 88% 29.95 in 10.0 mi South 8.1 mph - N/A   Clear
8:35 AM 73.4 °F - 69.8 °F 88% 29.96 in 10.0 mi South 6.9 mph - N/A   Clear
8:55 AM 73.4 °F - 71.6 °F 94% 29.96 in 10.0 mi South 8.1 mph - N/A   Clear
9:15 AM 75.2 °F - 71.6 °F 89% 29.97 in 10.0 mi South 10.4 mph - N/A   Clear
9:35 AM 75.2 °F - 71.6 °F 89% 29.97 in 10.0 mi South 9.2 mph - N/A   Clear
9:55 AM 75.2 °F - 71.6 °F 89% 29.98 in 10.0 mi South 9.2 mph - N/A   Clear
10:15 AM 78.8 °F - 71.6 °F 78% 29.97 in 10.0 mi South 9.2 mph - N/A   Clear
10:35 AM 80.6 °F 84.6 °F 71.6 °F 74% 29.97 in 10.0 mi South 9.2 mph - N/A   Clear
10:55 AM 80.6 °F 84.6 °F 71.6 °F 74% 29.97 in 10.0 mi SSW 10.4 mph - N/A   Clear
11:15 AM 82.4 °F 87.2 °F 71.6 °F 70% 29.97 in 10.0 mi SW 10.4 mph 16.1 mph N/A   Clear
11:35 AM 82.4 °F 87.2 °F 71.6 °F 70% 29.97 in 10.0 mi South 11.5 mph - N/A   Clear
11:55 AM 84.2 °F 89.6 °F 71.6 °F 66% 29.96 in 10.0 mi South 9.2 mph - N/A   Scattered Clouds
12:15 PM 84.2 °F 88.4 °F 69.8 °F 62% 29.96 in 10.0 mi SSW 8.1 mph 16.1 mph N/A   Scattered Clouds
12:35 PM 84.2 °F 87.3 °F 68.0 °F 58% 29.96 in 10.0 mi South 10.4 mph - N/A   Scattered Clouds
12:55 PM 84.2 °F 87.3 °F 68.0 °F 58% 29.96 in 10.0 mi South 9.2 mph - N/A   Scattered Clouds
1:15 PM 86.0 °F 88.2 °F 66.2 °F 51% 29.96 in 10.0 mi South 10.4 mph - N/A   Scattered Clouds
1:35 PM 86.0 °F 87.3 °F 64.4 °F 48% 29.95 in 10.0 mi South 12.7 mph - N/A   Partly Cloudy
1:55 PM 86.0 °F 87.3 °F 64.4 °F 48% 29.95 in 10.0 mi SSW 6.9 mph - N/A   Scattered Clouds
2:15 PM 86.0 °F 88.2 °F 66.2 °F 51% 29.94 in 10.0 mi South 5.8 mph - N/A   Scattered Clouds
2:35 PM 87.8 °F 89.4 °F 64.4 °F 46% 29.94 in 10.0 mi SSE 10.4 mph - N/A   Scattered Clouds
2:55 PM 87.8 °F 89.4 °F 64.4 °F 46% 29.93 in 10.0 mi SSE 8.1 mph - N/A   Scattered Clouds
3:15 PM 86.0 °F 87.3 °F 64.4 °F 48% 29.94 in 10.0 mi SSW 9.2 mph - N/A   Partly Cloudy
3:35 PM 84.2 °F 86.6 °F 66.2 °F 55% 29.92 in 10.0 mi SSW 8.1 mph - N/A Thunderstorm Partly Cloudy
3:55 PM 80.6 °F 83.2 °F 68.0 °F 65% 29.96 in 10.0 mi NW 19.6 mph 27.6 mph N/A Thunderstorm Thunderstorm
4:15 PM 73.4 °F - 68.0 °F 83% 29.96 in 10.0 mi NW 15.0 mph - N/A Thunderstorm Mostly Cloudy
4:35 PM 71.6 °F - 69.8 °F 94% 29.97 in 9.0 mi NW 5.8 mph - N/A Thunderstorm Scattered Clouds
5:15 PM 71.6 °F - 71.6 °F 100% 29.96 in 10.0 mi NNW 4.6 mph - N/A Thunderstorm Scattered Clouds
5:35 PM 71.6 °F - 71.6 °F 100% 29.96 in 10.0 mi NW 4.6 mph - N/A Thunderstorm Partly Cloudy
5:55 PM 71.6 °F - 69.8 °F 94% 29.96 in 10.0 mi North 3.5 mph - N/A Thunderstorm Partly Cloudy
6:15 PM 71.6 °F - 71.6 °F 100% 29.96 in 10.0 mi ENE 3.5 mph - N/A Thunderstorm Partly Cloudy
6:35 PM 71.6 °F - 71.6 °F 100% 29.97 in 10.0 mi East 8.1 mph - N/A   Clear
6:55 PM 71.6 °F - 69.8 °F 94% 29.97 in 10.0 mi Calm Calm - N/A   Clear
7:15 PM 71.6 °F - 71.6 °F 100% 29.96 in 10.0 mi ESE 4.6 mph - N/A   Partly Cloudy
7:35 PM 71.6 °F - 69.8 °F 94% 29.94 in 10.0 mi ESE 6.9 mph - N/A   Clear
7:55 PM 71.6 °F - 69.8 °F 94% 29.95 in 10.0 mi ESE 6.9 mph - N/A   Clear
8:15 PM 71.6 °F - 69.8 °F 94% 29.95 in 10.0 mi ESE 9.2 mph - N/A   Clear
8:35 PM 71.6 °F - 69.8 °F 94% 29.99 in 10.0 mi SE 10.4 mph 18.4 mph N/A   Clear
8:55 PM 71.6 °F - 69.8 °F 94% 30.01 in 10.0 mi SSE 11.5 mph - N/A Thunderstorm Clear
9:15 PM 71.6 °F - 69.8 °F 94% 30.01 in 10.0 mi SSE 10.4 mph - N/A   Clear
9:35 PM 71.6 °F - 69.8 °F 94% 30.01 in 10.0 mi SE 8.1 mph - N/A   Clear
9:55 PM 71.6 °F - 69.8 °F 94% 30.00 in 10.0 mi SE 9.2 mph - N/A   Clear
10:15 PM 69.8 °F - 69.8 °F 100% 30.00 in 10.0 mi SSE 8.1 mph - N/A   Clear
10:35 PM 69.8 °F - 69.8 °F 100% 29.99 in 10.0 mi SE 6.9 mph - N/A   Clear
10:55 PM 69.8 °F - 69.8 °F 100% 30.00 in 10.0 mi SSE 4.6 mph - N/A   Clear
11:15 PM 69.8 °F - 69.8 °F 100% 29.99 in 10.0 mi SE 5.8 mph - N/A   Clear
11:35 PM 69.8 °F - 69.8 °F 100% 30.00 in 10.0 mi SSE 6.9 mph - N/A   Clear
11:55 PM 69.8 °F - 69.8 °F 100% 29.98 in 10.0 mi SSE 5.8 mph - N/A   Clear